Hourly Weather Montceau-les-Mines

Today, 15 July, Wednesday

Time Temperature Precipitation Wind Pressure Humidity
00:00 +14°C° 0 mm 1 mps 735 mmHg 91%
01:00 +14°C° 0 mm 1 mps 734 mmHg 92%
02:00 +14°C° 0 mm 1 mps 734 mmHg 92%
03:00 +14°C° 0 mm 1 mps 734 mmHg 93%
04:00 +14°C° 0.2 mm 1 mps 734 mmHg 94%
05:00 +14°C° 0.2 mm 1 mps 734 mmHg 95%
06:00 +15°C° 0.2 mm 1 mps 734 mmHg 96%
07:00 +15°C° 0.4 mm 1 mps 734 mmHg 97%
08:00 +15°C° 0.4 mm 1 mps 735 mmHg 97%
09:00 +15°C° 0.4 mm 1 mps 735 mmHg 97%
10:00 +16°C° 0.5 mm 1 mps 735 mmHg 97%
11:00 +16°C° 0.5 mm 1 mps 735 mmHg 96%
12:00 +16°C° 0.5 mm 1 mps 736 mmHg 95%
13:00 +16°C° 0.2 mm 2 mps 736 mmHg 95%
14:00 +16°C° 0.2 mm 2 mps 736 mmHg 94%
15:00 +16°C° 0.2 mm 2 mps 736 mmHg 93%
16:00 +15°C° 0 mm 2 mps 736 mmHg 93%
17:00 +15°C° 0 mm 1 mps 736 mmHg 92%
18:00 +15°C° 0 mm 1 mps 737 mmHg 91%
19:00 +15°C° 0 mm 1 mps 737 mmHg 92%
20:00 +14°C° 0 mm 1 mps 737 mmHg 93%
21:00 +14°C° 0 mm 1 mps 738 mmHg 94%
22:00 +14°C° 0 mm 1 mps 737 mmHg 94%
23:00 +14°C° 0 mm 1 mps 737 mmHg 95%

Tomorrow, 16 July, Thursday

Time Temperature Precipitation Wind Pressure Humidity
00:00 +13°C° 0 mm 1 mps 737 mmHg 96%
01:00 +13°C° 0 mm 1 mps 737 mmHg 96%
02:00 +13°C° 0 mm 1 mps 738 mmHg 97%
03:00 +12°C° 0 mm 1 mps 738 mmHg 98%
04:00 +13°C° 0 mm 1 mps 738 mmHg 96%
05:00 +14°C° 0 mm 1 mps 738 mmHg 94%
06:00 +14°C° 0 mm 1 mps 738 mmHg 92%
07:00 +16°C° 0 mm 1 mps 738 mmHg 84%
08:00 +19°C° 0 mm 1 mps 738 mmHg 75%
09:00 +19°C° 0 mm 2 mps 739 mmHg 67%
10:00 +20°C° 0.1 mm 2 mps 739 mmHg 65%
11:00 +20°C° 0.1 mm 2 mps 738 mmHg 63%
12:00 +21°C° 0.1 mm 2 mps 738 mmHg 61%
13:00 +21°C° 0 mm 2 mps 738 mmHg 60%
14:00 +23°C° 0 mm 2 mps 738 mmHg 58%
15:00 +23°C° 0 mm 2 mps 738 mmHg 57%
16:00 +23°C° 0 mm 2 mps 738 mmHg 61%
17:00 +21°C° 0 mm 2 mps 738 mmHg 65%
18:00 +21°C° 0 mm 2 mps 738 mmHg 69%
19:00 +20°C° 0 mm 1 mps 738 mmHg 77%
20:00 +18°C° 0 mm 1 mps 738 mmHg 85%
21:00 +15°C° 0 mm 1 mps 738 mmHg 94%
22:00 +15°C° 0 mm 1 mps 738 mmHg 93%
23:00 +14°C° 0 mm 0 mps 738 mmHg 93%

Day after tomorrow, 17 July, Friday

Time Temperature Precipitation Wind Pressure Humidity
00:00 +14°C° 0 mm 0 mps 738 mmHg 93%
01:00 +14°C° 0 mm 0 mps 737 mmHg 93%
02:00 +14°C° 0 mm 0 mps 737 mmHg 93%
03:00 +14°C° 0 mm 0 mps 737 mmHg 94%
04:00 +15°C° 0 mm 1 mps 737 mmHg 92%
05:00 +16°C° 0 mm 1 mps 737 mmHg 91%
06:00 +16°C° 0 mm 1 mps 737 mmHg 90%
07:00 +18°C° 0.1 mm 1 mps 737 mmHg 85%
08:00 +20°C° 0.1 mm 1 mps 737 mmHg 80%
09:00 +20°C° 0.1 mm 2 mps 737 mmHg 75%
10:00 +20°C° 0.2 mm 2 mps 737 mmHg 71%
11:00 +21°C° 0.2 mm 2 mps 737 mmHg 67%
12:00 +23°C° 0.2 mm 2 mps 737 mmHg 64%
13:00 +23°C° 0.2 mm 2 mps 737 mmHg 65%
14:00 +23°C° 0.2 mm 2 mps 737 mmHg 67%
15:00 +23°C° 0.2 mm 2 mps 736 mmHg 68%
16:00 +21°C° 0.1 mm 2 mps 737 mmHg 70%
17:00 +21°C° 0.1 mm 2 mps 737 mmHg 72%
18:00 +21°C° 0.1 mm 2 mps 737 mmHg 75%
19:00 +19°C° 0 mm 2 mps 737 mmHg 81%
20:00 +18°C° 0 mm 1 mps 737 mmHg 88%
21:00 +15°C° 0 mm 1 mps 737 mmHg 95%
22:00 +15°C° 0 mm 1 mps 737 mmHg 96%
23:00 +15°C° 0 mm 1 mps 737 mmHg 96%

18 July, Saturday

Time Temperature Precipitation Wind Pressure Humidity
00:00 +14°C° 0 mm 1 mps 737 mmHg 97%
01:00 +14°C° 0 mm 1 mps 737 mmHg 97%
02:00 +14°C° 0 mm 1 mps 737 mmHg 97%
03:00 +12°C° 0 mm 0 mps 737 mmHg 97%
04:00 +13°C° 0 mm 0 mps 737 mmHg 95%
05:00 +14°C° 0 mm 0 mps 737 mmHg 93%
06:00 +15°C° 0 mm 0 mps 737 mmHg 91%
07:00 +19°C° 0 mm 1 mps 737 mmHg 82%
08:00 +21°C° 0 mm 1 mps 737 mmHg 72%
09:00 +23°C° 0 mm 1 mps 737 mmHg 62%
10:00 +23°C° 0.1 mm 1 mps 737 mmHg 60%
11:00 +24°C° 0.1 mm 1 mps 737 mmHg 58%
12:00 +25°C° 0.1 mm 1 mps 737 mmHg 57%
13:00 +25°C° 0 mm 1 mps 737 mmHg 56%
14:00 +25°C° 0 mm 1 mps 736 mmHg 55%
15:00 +26°C° 0 mm 1 mps 736 mmHg 54%
16:00 +25°C° 0 mm 1 mps 736 mmHg 59%
17:00 +24°C° 0 mm 1 mps 736 mmHg 64%
18:00 +24°C° 0 mm 1 mps 736 mmHg 69%
19:00 +22°C° 0 mm 1 mps 736 mmHg 75%
20:00 +20°C° 0 mm 1 mps 736 mmHg 82%
21:00 +18°C° 0 mm 1 mps 736 mmHg 88%
22:00 +16°C° 0 mm 0 mps 736 mmHg 90%
23:00 +15°C° 0 mm 0 mps 736 mmHg 93%

19 July, Sunday

Time Temperature Precipitation Wind Pressure Humidity
00:00 +15°C° 0 mm 0 mps 736 mmHg 95%
01:00 +14°C° 0 mm 0 mps 736 mmHg 95%
02:00 +14°C° 0 mm 0 mps 736 mmHg 95%
03:00 +14°C° 0 mm 0 mps 736 mmHg 95%
04:00 +15°C° 0 mm 0 mps 736 mmHg 93%
05:00 +16°C° 0 mm 0 mps 736 mmHg 91%
06:00 +16°C° 0 mm 0 mps 736 mmHg 88%
07:00 +19°C° 0 mm 0 mps 736 mmHg 77%
08:00 +21°C° 0 mm 0 mps 736 mmHg 67%
09:00 +26°C° 0 mm 1 mps 736 mmHg 56%
10:00 +27°C° 0 mm 1 mps 736 mmHg 51%
11:00 +28°C° 0 mm 1 mps 736 mmHg 46%
12:00 +29°C° 0 mm 1 mps 736 mmHg 40%
13:00 +29°C° 0 mm 2 mps 736 mmHg 40%
14:00 +29°C° 0 mm 2 mps 736 mmHg 39%
15:00 +29°C° 0 mm 2 mps 736 mmHg 38%
16:00 +28°C° 0 mm 2 mps 736 mmHg 43%
17:00 +27°C° 0 mm 2 mps 736 mmHg 47%
18:00 +26°C° 0 mm 1 mps 736 mmHg 52%
19:00 +24°C° 0 mm 1 mps 736 mmHg 62%
20:00 +21°C° 0 mm 1 mps 736 mmHg 71%
21:00 +19°C° 0 mm 1 mps 737 mmHg 80%
22:00 +18°C° 0 mm 1 mps 737 mmHg 85%
23:00 +16°C° 0 mm 1 mps 737 mmHg 90%

20 July, Monday

Time Temperature Precipitation Wind Pressure Humidity
00:00 +15°C° 0 mm 1 mps 737 mmHg 94%
01:00 +14°C° 0 mm 0 mps 737 mmHg 95%
02:00 +14°C° 0 mm 0 mps 737 mmHg 95%
03:00 +14°C° 0 mm 0 mps 737 mmHg 96%
04:00 +15°C° 0 mm 0 mps 737 mmHg 92%
05:00 +16°C° 0 mm 0 mps 737 mmHg 89%
06:00 +16°C° 0 mm 0 mps 737 mmHg 86%
07:00 +18°C° 0.1 mm 0 mps 737 mmHg 78%
08:00 +22°C° 0.1 mm 1 mps 738 mmHg 71%
09:00 +25°C° 0.1 mm 1 mps 738 mmHg 63%
10:00 +25°C° 0.2 mm 1 mps 738 mmHg 58%
11:00 +26°C° 0.2 mm 2 mps 738 mmHg 54%
12:00 +27°C° 0.2 mm 2 mps 738 mmHg 49%
13:00 +27°C° 0.1 mm 2 mps 738 mmHg 48%
14:00 +27°C° 0.1 mm 2 mps 738 mmHg 47%
15:00 +27°C° 0.1 mm 2 mps 738 mmHg 46%
16:00 +26°C° 0 mm 2 mps 738 mmHg 49%
17:00 +25°C° 0 mm 3 mps 738 mmHg 52%
18:00 +24°C° 0 mm 3 mps 738 mmHg 55%
19:00 +20°C° 0 mm 2 mps 739 mmHg 59%
20:00 +18°C° 0 mm 2 mps 739 mmHg 64%
21:00 +16°C° 0 mm 2 mps 739 mmHg 68%
22:00 +15°C° 0 mm 1 mps 739 mmHg 71%
23:00 +14°C° 0 mm 1 mps 740 mmHg 74%
Show more